Weather History for Cairns, QU

Change the Weather History Date:

Monday, January 13, 2014

  Actual Average Record
Temperature  
Mean Temperature 76 °F -  
Max Temperature 79 °F 89 °F 95 °F (1999)
Min Temperature 74 °F 74 °F 32 °F (2004)
Cooling Degree Days 12    
Growing Degree Days 26 (Base 50)    
Moisture  
Dew Point 72 °F    
Average Humidity 85    
Maximum Humidity 94    
Minimum Humidity 73    
Precipitation  
Precipitation 0.16 in 0.54 in - ()
Sea Level Pressure  
Sea Level Pressure 29.81 in    
Wind  
Wind Speed 11 mph ()    
Max Wind Speed 18 mph    
Max Gust Speed -    
Visibility 6.4 miles    
Events Rain    
Averages and records for this station are not official NWS values.
T = Trace of Precipitation, MM = Missing Value Source: Averaged Metar Reports

Daily Weather History Graph

Daily Weather History Graph

Search for Another Location

Airport:

Trip Planner

Search our weather history database for the weather conditions in past years. The results will help you decide how hot, cold, wet, or windy it might be!

Date:

Astronomy

Jan. 13, 2014 Rise Set
Actual Time 5:54 AM AEST 6:56 PM AEST
Civil Twilight 5:30 AM AEST 7:20 PM AEST
Nautical Twilight 5:02 AM AEST 7:48 PM AEST
Astronomical Twilight 4:34 AM AEST 8:16 PM AEST
Moon 4:34 PM AEST (1/13) 3:18 AM AEST (1/13)
Length of Visible Light 13h 49m
Length of Day
13h 02m
Waxing Gibbous, 91% of the Moon is Illuminated
Jan 13
Waxing Gibbous
Jan 16
Full
Jan 24
Last Quarter
Jan 31
New
Feb 7
First Quarter

Hourly Weather History & Observations

Time (AEST) Temp. Dew Point Humidity Pressure Visibility Wind Dir Wind Speed Gust Speed Precip Events Conditions
12:00 AM 77 °F 72 °F 82% 29.84 in - South 10.4 mph - -  
12:00 AM 77.0 °F 73.4 °F 89% 29.83 in 6.2 mi South 10.4 mph - N/A Rain Light Rain Showers
12:30 AM 77.0 °F 73.4 °F 89% 29.83 in 6.2 mi South 10.4 mph - N/A   Mostly Cloudy
1:00 AM 77 °F 73 °F 83% 29.83 in - South 13.8 mph - -  
1:00 AM 77.0 °F 73.4 °F 89% 29.80 in 6.2 mi South 13.8 mph - N/A   Mostly Cloudy
1:30 AM 77.0 °F 73.4 °F 89% 29.80 in 6.2 mi South 10.4 mph - N/A   Mostly Cloudy
2:00 AM 75.2 °F 73.4 °F 94% 29.80 in 6.2 mi SSE 11.5 mph - N/A   Mostly Cloudy
2:30 AM 77.0 °F 71.6 °F 83% 29.80 in 6.2 mi South 11.5 mph - N/A   Mostly Cloudy
3:00 AM 76 °F 72 °F 86% 29.79 in - SSW 9.2 mph - -   Overcast
3:00 AM 77.0 °F 73.4 °F 89% 29.77 in 6.2 mi South 9.2 mph - N/A Rain Light Rain Showers
3:30 AM 75.2 °F 73.4 °F 94% 29.77 in 6.2 mi South 15.0 mph - N/A Rain Light Rain Showers
4:04 AM 75.2 °F 73.4 °F 94% 29.80 in 3.1 mi SE 8.1 mph - N/A Rain Rain Showers
4:30 AM 75.2 °F 71.6 °F 89% 29.80 in 6.2 mi South 11.5 mph - N/A Rain Light Rain Showers
5:00 AM 77.0 °F 71.6 °F 83% 29.80 in 6.2 mi South 11.5 mph - N/A Rain Light Rain Showers
5:30 AM 75.2 °F 71.6 °F 89% 29.80 in 6.2 mi South 15.0 mph - N/A Rain Light Rain Showers
5:51 AM 75.2 °F 71.6 °F 89% 29.80 in 6.2 mi South 11.5 mph - N/A Rain Light Rain Showers
6:00 AM 74 °F 72 °F 93% 29.82 in 9 mi SSE 13.8 mph - - Rain Light Rain Showers
6:00 AM 75.2 °F 71.6 °F 89% 29.80 in 6.2 mi SSE 13.8 mph - N/A Rain Light Rain Showers
6:30 AM 75.2 °F 71.6 °F 89% 29.83 in 6.2 mi South 8.1 mph - N/A   Mostly Cloudy
7:00 AM 76 °F 71 °F 80% 29.83 in - SSW 8.1 mph - -  
7:00 AM 77.0 °F 71.6 °F 83% 29.80 in 6.2 mi SSW 8.1 mph - N/A Rain Light Rain Showers
7:30 AM 75.2 °F 71.6 °F 89% 29.83 in 6.2 mi South 13.8 mph - N/A Rain Light Rain Showers
7:33 AM 75.2 °F 71.6 °F 89% 29.83 in 6.2 mi South 13.8 mph - N/A Rain Light Rain Showers
8:00 AM 75.2 °F 71.6 °F 89% 29.83 in 6.2 mi South 15.0 mph - N/A   Mostly Cloudy
8:30 AM 75.2 °F 73.4 °F 94% 29.83 in 6.2 mi South 15.0 mph - N/A   Mostly Cloudy
9:00 AM 76 °F 72 °F 84% 29.84 in 12 mi South 13.8 mph - -   Partly Cloudy
9:00 AM 75.2 °F 71.6 °F 89% 29.83 in 6.2 mi South 13.8 mph - N/A   Mostly Cloudy
9:30 AM 78.8 °F 73.4 °F 83% 29.83 in 6.2 mi South 12.7 mph - N/A   Mostly Cloudy
10:00 AM 78 °F 74 °F 83% 29.84 in - South 12.7 mph - -  
10:00 AM 78.8 °F 73.4 °F 83% 29.83 in 6.2 mi South 12.7 mph - N/A Rain Light Rain Showers
10:30 AM 77.0 °F 73.4 °F 89% 29.83 in 6.2 mi South 13.8 mph - N/A Rain Light Rain Showers
10:41 AM 77.0 °F 73.4 °F 89% 29.83 in 6.2 mi South 13.8 mph - N/A   Mostly Cloudy
11:00 AM 77.0 °F 71.6 °F 83% 29.80 in 6.2 mi South 13.8 mph - N/A   Mostly Cloudy
11:15 AM 77.0 °F 73.4 °F 89% 29.83 in 6.2 mi SSE 11.5 mph - N/A Rain Rain
11:30 AM 77.0 °F 73.4 °F 89% 29.83 in 6.2 mi SSE 11.5 mph - N/A Rain Light Rain Showers
12:00 PM 78 °F 71 °F 75% 29.82 in 11 mi ESE 9.2 mph - -   Mostly Cloudy
12:00 PM 78.8 °F 71.6 °F 78% 29.80 in 6.2 mi ESE 9.2 mph - N/A   Mostly Cloudy
12:30 PM 77.0 °F 73.4 °F 89% 29.80 in 6.2 mi South 9.2 mph - N/A Rain Light Rain Showers
1:00 PM 77 °F 73 °F 84% 29.81 in - South 11.5 mph - -  
1:00 PM 77.0 °F 73.4 °F 89% 29.80 in 6.2 mi South 11.5 mph - N/A Rain Light Rain Showers
1:08 PM 77.0 °F 73.4 °F 89% 29.80 in 6.2 mi South 11.5 mph - N/A Rain Light Rain Showers
1:30 PM 75.2 °F 71.6 °F 89% 29.77 in 6.2 mi South 11.5 mph - N/A Rain Light Rain Showers
2:00 PM 77.0 °F 71.6 °F 83% 29.77 in 6.2 mi South 11.5 mph - N/A   Mostly Cloudy
2:30 PM 77.0 °F 73.4 °F 89% 29.77 in 6.2 mi SSE 6.9 mph - N/A   Mostly Cloudy
3:00 PM 79 °F 72 °F 73% 29.76 in 12 mi South 10.4 mph - -   Mostly Cloudy
3:00 PM 78.8 °F 71.6 °F 78% 29.74 in 6.2 mi South 10.4 mph - N/A   Mostly Cloudy
3:30 PM 78.8 °F 71.6 °F 78% 29.74 in 6.2 mi South 10.4 mph - N/A   Mostly Cloudy
4:00 PM 77 °F 72 °F 80% 29.76 in - South 11.5 mph - -  
4:00 PM 77.0 °F 71.6 °F 83% 29.74 in 6.2 mi South 11.5 mph - N/A   Mostly Cloudy
4:30 PM 78.8 °F 71.6 °F 78% 29.74 in 6.2 mi South 12.7 mph - N/A   Mostly Cloudy
5:00 PM 78.8 °F 73.4 °F 83% 29.74 in 5.6 mi South 10.4 mph - N/A Rain Light Rain Showers
5:30 PM 78.8 °F 73.4 °F 83% 29.77 in 6.2 mi SE 18.4 mph - N/A   Mostly Cloudy
6:00 PM 79 °F 73 °F 77% 29.78 in - SE 15.0 mph - -   Overcast
6:00 PM 78.8 °F 73.4 °F 83% 29.77 in 6.2 mi SE 15.0 mph - N/A   Mostly Cloudy
6:30 PM 77.0 °F 71.6 °F 83% 29.80 in 6.2 mi SSE 11.5 mph - N/A   Scattered Clouds
7:00 PM 78 °F 72 °F 75% 29.81 in - South 11.5 mph - -  
7:00 PM 78.8 °F 71.6 °F 78% 29.80 in 6.2 mi South 11.5 mph - N/A   Mostly Cloudy
7:30 PM 78.8 °F 71.6 °F 78% 29.80 in 6.2 mi South 10.4 mph - N/A   Light Drizzle
8:00 PM 78.8 °F 71.6 °F 78% 29.80 in 6.2 mi South 11.5 mph - N/A   Mostly Cloudy
8:30 PM 77.0 °F 71.6 °F 83% 29.83 in 6.2 mi South 10.4 mph - N/A   Mostly Cloudy
9:00 PM 77 °F 71 °F 78% 29.84 in - South 10.4 mph - -  
9:00 PM 77.0 °F 71.6 °F 83% 29.83 in 6.2 mi South 10.4 mph - N/A Rain Light Rain Showers
9:30 PM 77.0 °F 71.6 °F 83% 29.83 in 6.2 mi South 13.8 mph - N/A   Mostly Cloudy
10:00 PM 77 °F 71 °F 77% 29.86 in - South 13.8 mph - -  
10:00 PM 77.0 °F 71.6 °F 83% 29.83 in 6.2 mi South 13.8 mph - N/A   Mostly Cloudy
10:30 PM 75.2 °F 71.6 °F 89% 29.86 in 6.2 mi South 16.1 mph - N/A Rain Light Rain Showers
11:00 PM 75.2 °F 71.6 °F 89% 29.86 in 6.2 mi South 12.7 mph - N/A Rain Light Rain Showers
11:30 PM 75.2 °F 71.6 °F 89% 29.83 in 3.7 mi South 12.7 mph - N/A Rain Light Rain Showers